Location: *
(33.0983°S, 144.4892°W)
Time: 04:12:00
(UTC+00:00)

Daily predictions for brighter satellites

Satellite Brightness Start Highest point End
(mag) Time Altitude Azimuth Time Altitude Azimuth Time Altitude Azimuth
Cosmos 1782 2.9 03:00:11 10° S 03:04:14 84° W 03:08:14 10° N
Cosmos 1805 Rocket 3.5 03:01:28 10° N 03:05:49 77° E 03:10:16 10° S
STARLINK-1015 3.7 03:02:02 10° NW 03:06:12 80° NE 03:10:25 10° SE
ADEOS Rocket 3.7 02:59:25 10° NNE 03:06:49 86° WNW 03:14:44 10° SSW
SL-4 R/B 3.1 03:05:14 10° SSW 03:08:20 23° SE 03:11:36 10° E
Envisat 4.1 03:05:15 10° SE 03:09:26 25° E 03:13:32 10° NNE
COSMOS 2428 3.1 03:03:50 10° NNW 03:09:31 68° WSW 03:15:18 10° SSE
Cosmos 2123 Rocket 4.0 03:03:28 10° S 03:09:45 78° E 03:16:00 10° N
STARLINK-1016 3.7 03:07:01 10° NW 03:11:10 89° NE 03:15:24 10° SE
ATLAS 5 CENTAUR R/B 3.0 03:08:35 10° N 03:15:33 53° ENE 03:22:15 10° SE
STARLINK-1008 3.7 03:11:59 10° NW 03:16:10 82° SW 03:20:23 10° SE
STARLINK-81 4.0 03:16:09 10° WNW 03:19:59 57° SW 03:23:52 10° SE
STARLINK-1014 3.8 03:16:58 10° NW 03:21:10 73° SW 03:25:24 10° SE
STARLINK-54 4.2 03:17:59 10° WNW 03:21:46 48° SW 03:25:36 10° SSE
Cosmos 2237 Rocket 2.4 03:16:31 10° N 03:22:02 54° ENE 03:27:33 10° SSE
Cosmos 1812 3.2 03:18:34 10° S 03:22:14 38° E 03:25:51 10° NNE
Radarsat Rocket 4.5 03:14:59 10° SSE 03:22:20 56° ENE 03:28:42 10° N
STARLINK-77 4.1 03:19:23 10° WNW 03:23:12 53° SW 03:27:03 10° SE
STARLINK-1010 4.1 03:19:46 10° NW 03:24:00 63° SW 03:28:17 10° SE
Helios 1A Rocket 4.2 03:21:08 10° SE 03:24:17 21° E 03:27:25 10° NNE
COSMO-SKYMED 1 3.7 03:20:29 10° N 03:24:42 48° W 03:28:59 10° SSW
Lacrosse 5 rocket 2.2 03:21:50 10° N 03:25:37 34° ENE 03:28:57 14° ESE
STARLINK-1025 3.9 03:22:00 10° NW 03:26:08 65° SW 03:30:16 10° SE
STARLINK-79 4.3 03:24:22 10° WNW 03:28:08 47° SW 03:31:56 10° SSE
CZ-4B R/B 3.2 03:23:08 10° SSE 03:28:38 69° ENE 03:34:10 10° N
STARLINK-78 4.4 03:26:03 10° WNW 03:29:47 44° SW 03:33:34 10° SSE
STARLINK-1017 4.1 03:26:58 10° WNW 03:31:04 58° SW 03:35:01 11° SE
Cosmos 1470 Rocket 4.5 03:27:31 10° NNE 03:31:23 29° E 03:35:17 10° SSE
Meteor 2-20 Rocket 4.4 03:26:34 10° S 03:32:49 77° E 03:38:59 10° N
STARLINK-49 4.5 03:29:23 10° WNW 03:33:06 41° SW 03:36:45 11° SSE
STARLINK-60 4.0 03:30:50 10° SSW 03:33:42 27° SE 03:35:16 19° E
Cosmos 1707 Rocket 3.6 03:31:09 10° S 03:35:33 56° E 03:39:51 10° NNE
STARLINK-1023 4.3 03:32:01 10° WNW 03:36:05 52° SW 03:39:49 12° SSE
SL-16 R/B 3.3 03:33:19 10° NNE 03:37:45 24° E 03:40:31 17° ESE
USA 116 4.4 03:33:32 10° N 03:38:08 82° WNW 03:43:17 10° SSW
STARLINK-1007 4.4 03:37:03 10° WNW 03:41:05 47° SW 03:44:36 13° SSE
Cosmos 1371 Rocket 4.3 03:36:51 10° S 03:42:02 44° ESE 03:47:06 10° NE
Cosmos 2333 Rocket 4.0 03:37:22 10° WNW 03:42:22 30° WSW 03:47:25 10° S
AQUARIUS 4.2 03:42:24 10° SSE 03:46:55 59° E 03:51:21 10° N
STARLINK-1047 4.5 03:44:44 10° NNW 03:48:29 33° NE 03:50:05 24° E
Cosmos 1441 Rocket 3.9 03:45:39 10° NNE 03:49:15 34° E 03:51:00 23° SE
Cosmos 1862 Rocket 4.2 03:45:20 10° SSE 03:49:32 35° E 03:53:40 10° NE
BREEZE-M DEB (TANK) 4.4 03:49:40 10° SSW 03:51:29 16° SSE 03:51:29 16° SSE
Cosmos 2278 Rocket 2.4 03:47:24 10° S 03:52:55 47° ESE 03:58:20 10° NE
Okean O Rocket 2.2 03:49:59 10° S 03:54:23 58° WSW 03:58:44 10° NNW
Cosmos 405 4.2 03:53:31 10° SSW 03:56:56 43° W 04:00:15 10° NNW
H-2A R/B 3.8 03:53:20 10° S 03:57:06 46° WSW 04:00:50 10° NNW
STARLINK-1059 4.1 03:54:27 10° NNW 03:58:22 42° NE 03:59:38 32° E
SMAP 3.1 03:56:27 10° S 04:01:11 84° WSW 04:05:51 10° NNW
STARLINK-1057 4.0 03:59:20 10° NNW 04:03:20 47° NE 04:04:25 37° E
ATLAS 2AS CENTAUR R/B 4.4 04:02:04 10° SSE 04:03:38 12° SSE 04:03:38 12° SSE
STARLINK-1034 3.8 04:04:13 10° NNW 04:08:16 53° NE 04:09:12 43° E
Cosmos 2056 Rocket 3.4 04:05:11 10° SSW 04:10:31 70° ESE 04:15:42 10° NNE
STARLINK-1068 3.7 04:09:09 10° NNW 04:13:15 60° NE 04:14:00 50° E
STARLINK-1027 3.6 04:14:05 10° NW 04:18:13 68° NE 04:18:47 59° E
Cosmos 1933 Rocket 3.4 04:15:20 10° N 04:19:41 75° E 04:21:34 33° SSE
Cosmos 2100 Rocket 4.1 04:13:35 10° N 04:19:50 79° W 04:26:04 10° S
Meteor 1-25 Rocket 4.1 04:14:49 10° N 04:20:22 77° E 04:25:30 13° SSE
STARLINK-1060 3.5 04:19:02 10° NW 04:23:11 77° NE 04:23:34 69° E
STARLINK-1030 3.4 04:23:59 10° NW 04:28:09 86° NE 04:28:20 80° ESE
YAOGAN 6 4.0 04:28:41 14° S 04:31:29 38° WSW 04:34:54 10° NW
Meteor 1-14 Rocket 4.2 04:26:34 10° N 04:32:06 57° E 04:33:12 49° SE
STARLINK-1020 3.5 04:28:58 10° NW 04:33:08 85° SW 04:33:08 85° SW
Cosmos 2061 Rocket 3.9 04:30:04 10° N 04:36:21 87° E 04:42:40 10° S
Okean-O 2.9 04:38:47 56° NNE 04:38:47 56° NNE 04:42:24 10° N
STARLINK-1052 3.7 04:33:56 10° NW 04:37:55 74° WSW 04:37:55 74° WSW
BREEZE-M DEB (TANK) 4.0 04:36:06 10° WNW 04:39:57 65° SSW 04:46:15 28° SE
Cosmos 1420 Rocket 4.1 04:39:05 10° SSW 04:43:41 62° SSE 04:43:41 62° SSE
Cosmos 2016 Rocket 4.1 04:40:58 10° N 04:47:13 77° W 04:53:37 10° S
SL-4 R/B 3.1 04:44:19 10° WSW 04:47:59 39° NW 04:48:24 38° NNW
STARLINK-1033 4.3 04:43:56 10° NW 04:47:29 54° W 04:47:29 54° W
Cosmos 1864 Rocket 4.3 04:41:57 10° N 04:48:05 88° E 04:51:32 29° S
ATLAS 5 CENTAUR R/B 4.2 04:54:22 10° WNW 05:00:35 31° SW 05:04:51 17° S
Cosmos 1048 Rocket 4.2 04:57:07 10° NNW 05:01:52 66° WNW 05:01:52 66° WNW
Lacrosse 5 rocket 3.3 05:01:14 10° W 05:04:38 25° SW 05:04:38 25° SW
CZ-4 R/B 4.2 05:12:45 12° NNW 05:12:45 12° NNW 05:13:06 10° NNW
SL-16 R/B 3.4 05:16:17 10° NW 05:21:34 38° WSW 05:22:27 36° SW
CZ-3A R/B 4.5 05:05:52 10° NNW 05:40:04 76° NE 05:40:58 72° E
CZ-3A R/B 4.2 05:57:29 10° W 06:14:18 43° NW 06:14:18 43° NW
